EW8108 Weather Reports


time (UTC)temp
C
wind
direction
speed
KPH
gust
KPH
rain 1hr
cm
rain 24hr
cm
rain mn
cm
humidity
%
barometer
mb
20260509005441 24 208 0.0 0.0 0.00 0.00 0.00 22 970.1
20260509004447 24 208 0.0 0.0 0.00 0.00 0.00 24 970.1
20260509002320 24 208 0.0 0.0 0.00 0.00 0.00 31 970.1
20260509000147 24 208 0.0 0.0 0.00 0.00 0.00 39 970.2
20260508235139 24 208 0.0 0.0 0.00 0.00 0.00 42 970.2
20260508234150 24 208 0.0 0.0 0.00 0.00 0.00 46 970.2
20260508233210 25 208 0.0 0.0 0.00 0.00 0.00 48 970.2
20260508232232 25 208 0.0 0.0 0.00 0.00 0.00 50 970.2
20260508231209 25 208 0.0 0.0 0.00 0.00 0.00 52 970.2
20260508230205 25 208 0.0 0.0 0.00 0.00 0.00 54 970.1
20260508225137 25 208 0.0 0.0 0.00 0.00 0.00 56 970.1
20260508224136 25 208 0.0 0.0 0.00 0.00 0.00 57 970.2
20260508223130 25 208 0.0 0.0 0.00 0.00 0.00 58 970.0
20260508222144 26 208 0.0 0.0 0.00 0.00 0.00 59 970.2
20260508221147 26 205 0.0 0.0 0.00 0.00 0.00 60 970.1
20260508220135 26 205 0.0 0.0 0.00 0.00 0.00 59 970.0
20260508215117 26 206 0.0 0.0 0.00 0.00 0.00 59 970.1
20260508214121 26 206 0.0 0.0 0.00 0.00 0.00 60 970.3
20260508213120 26 194 0.0 0.0 0.00 0.00 0.00 59 970.4
20260508212111 26 193 0.0 0.0 0.00 0.00 0.00 59 970.5
20260508211136 26 209 0.0 0.0 0.00 0.00 0.00 60 970.7
20260508210106 26 210 0.0 0.0 0.00 0.00 0.00 60 970.9
20260508205052 26 215 0.0 0.0 0.00 0.00 0.00 60 971.0
20260508204105 25 140 0.0 0.0 0.00 0.00 0.00 60 971.2
20260508203112 26 142 0.0 0.0 0.00 0.00 0.00 60 971.3
20260508195712 25 115 0.0 0.0 0.00 0.00 0.00 60 971.7
20260508194652 25 114 0.0 0.0 0.00 0.00 0.00 60 971.7
20260508192518 26 113 0.0 0.0 0.00 0.00 0.00 60 972.0
20260508191501 26 113 0.0 0.0 0.00 0.00 0.00 60 972.1
20260508190452 26 113 0.0 1.6 0.00 0.00 0.00 60 972.2
20260508185440 26 109 0.0 0.0 0.00 0.00 0.00 60 972.2
20260508182156 25 109 0.0 0.0 0.00 0.00 0.00 59 972.6
20260508180041 23 109 0.0 0.0 0.00 0.00 0.00 56 972.9
20260508175025 23 109 0.0 0.0 0.00 0.00 0.00 58 972.9
20260508173957 23 109 0.0 0.0 0.00 0.00 0.00 59 973.2
20260508172923 23 109 0.0 0.0 0.00 0.00 0.00 56 973.3
20260508171905 22 109 0.0 0.0 0.00 0.00 0.00 54 973.5
20260508170901 21 108 0.0 0.0 0.00 0.00 0.00 46 973.5
20260508165852 21 109 0.0 0.0 0.00 0.00 0.00 49 973.6
20260508164855 20 108 0.0 0.0 0.00 0.00 0.00 50 973.8
20260508162753 20 109 0.0 0.0 0.00 0.00 0.00 42 974.2
20260508161801 20 109 0.0 0.0 0.00 0.00 0.00 44 974.2
20260508160740 20 109 0.0 0.0 0.00 0.00 0.00 41 974.2
20260508155729 19 109 0.0 0.0 0.00 0.00 0.00 40 974.3
20260508153626 18 109 0.0 0.0 0.00 0.00 0.00 40 974.7
20260508152556 18 109 0.0 0.0 0.00 0.00 0.00 45 974.7
20260508145322 18 109 0.0 0.0 0.00 0.00 0.00 42 974.7
20260508144319 18 109 0.0 0.0 0.00 0.00 0.00 37 974.7
20260508143248 18 109 0.0 0.0 0.00 0.00 0.00 35 974.7
20260508142307 18 109 0.0 0.0 0.00 0.00 0.00 28 974.5
20260508141242 17 108 0.0 0.0 0.00 0.00 0.00 26 974.4
20260508140306 17 108 0.0 0.0 0.00 0.00 0.00 27 974.5
20260508135314 17 108 0.0 0.0 0.00 0.00 0.00 18 974.6
20260508134333 17 108 0.0 0.0 0.00 0.00 0.00 9 974.8
20260508133305 16 108 0.0 0.0 0.00 0.00 0.00 9 974.8
20260508132301 16 108 0.0 0.0 0.00 0.00 0.00 1 974.3
20260508130122 16 108 0.0 0.0 0.00 0.00 0.00 5 975.1
20260508125136 16 108 0.0 0.0 0.00 0.00 0.00 4 974.9
20260508124148 16 108 0.0 0.0 0.00 0.00 0.00 3 975.1
20260508123130 16 108 0.0 0.0 0.00 0.00 0.00 5 975.0
20260508122141 16 108 0.0 0.0 0.00 0.00 0.00 4 975.1
20260508120048 15 108 0.0 0.0 0.00 0.00 0.00 6 975.2
20260508115057 15 108 0.0 0.0 0.00 0.00 0.00 6 975.3
20260508112923 16 108 0.0 0.0 0.00 0.00 0.00 1 975.6
20260508111903 15 108 0.0 0.0 0.00 0.00 0.00 4 975.7
20260508105818 15 108 0.0 0.0 0.00 0.00 0.00 7 975.3
20260508104834 15 108 0.0 0.0 0.00 0.00 0.00 7 975.1
20260508102651 16 108 0.0 0.0 0.00 0.00 0.00 2 975.0
20260508101651 15 108 0.0 0.0 0.00 0.00 0.00 4 975.4
20260508100639 15 108 0.0 0.0 0.00 0.00 0.00 8 975.6
20260508095639 15 108 0.0 0.0 0.00 0.00 0.00 5 975.8
20260508094656 15 108 0.0 0.0 0.00 0.00 0.00 7 975.8
20260508092508 15 108 0.0 0.0 0.00 0.00 0.00 1 975.6
20260508091530 16 108 0.0 0.0 0.00 0.00 0.00 1 975.5
20260508090527 15 108 0.0 0.0 0.00 0.00 0.00 2 975.4
20260508085529 15 108 0.0 0.0 0.00 0.00 0.00 11 975.4
20260508084534 15 108 0.0 0.0 0.00 0.00 0.00 29 975.3
20260508083538 15 108 0.0 0.0 0.00 0.00 0.00 28 975.3
20260508082553 15 108 0.0 0.0 0.00 0.00 0.00 27 975.4
20260508081519 15 108 0.0 0.0 0.00 0.00 0.00 27 975.3
20260508080504 15 108 0.0 0.0 0.00 0.00 0.00 27 975.5
20260508075503 15 108 0.0 0.0 0.00 0.00 0.00 27 975.3
20260508074517 15 108 0.0 0.0 0.00 0.00 0.00 24 975.2
20260508073453 15 108 0.0 0.0 0.00 0.00 0.00 22 975.1
20260508072455 15 108 0.0 0.0 0.00 0.00 0.00 18 975.2
20260508071427 15 108 0.0 0.0 0.00 0.00 0.00 10 975.2
20260508065355 15 108 0.0 0.0 0.00 0.00 0.00 1 975.8
20260508064322 15 108 0.0 0.0 0.00 0.00 0.00 1 975.9
20260508061023 15 108 0.0 0.0 0.00 0.00 0.00 1 976.4
20260508060042 15 108 0.0 0.0 0.00 0.00 0.00 1 976.2
20260508055106 15 108 0.0 0.0 0.00 0.00 0.00 1 975.9
20260508054056 15 108 0.0 0.0 0.00 0.00 0.00 1 976.0
20260508053108 15 108 0.0 0.0 0.00 0.00 0.00 1 976.3
20260508052053 15 108 0.0 0.0 0.00 0.00 0.00 1 976.2
20260508051038 15 108 0.0 0.0 0.00 0.00 0.00 1 976.1
20260508044950 15 108 0.0 0.0 0.00 0.00 0.00 1 976.0
20260508043938 15 108 0.0 0.0 0.00 0.00 0.00 1 976.8
20260508041806 15 108 0.0 0.0 0.00 0.00 0.00 1 975.6
20260508040813 15 108 0.0 0.0 0.00 0.00 0.00 1 976.1
20260508035740 14 108 0.0 0.0 0.00 0.00 0.00 1 976.8
20260508034749 15 108 0.0 0.0 0.00 0.00 0.00 4 976.5
20260508033724 15 108 0.0 0.0 0.00 0.00 0.00 15 976.9
20260508031649 15 108 0.0 0.0 0.00 0.00 0.00 29 977.3
20260508030710 15 108 0.0 0.0 0.00 0.00 0.00 36 977.2
20260508025717 15 108 0.0 0.0 0.00 0.00 0.00 43 976.6
20260508023602 15 108 0.0 0.0 0.00 0.00 0.00 50 975.7
20260508022605 15 108 0.0 0.0 0.00 0.00 0.00 52 975.5
20260508021536 15 108 0.0 0.0 0.00 0.00 0.00 55 974.7
20260508014315 15 109 0.0 0.0 0.00 0.00 0.00 61 975.1
20260508013339 15 109 0.0 0.0 0.00 0.00 0.00 62 975.0
20260508012317 15 109 0.0 0.0 0.00 0.00 0.00 62 974.7
20260508011310 16 100 0.0 0.0 0.00 0.00 0.00 63 974.8
20260508010318 16 99 0.0 0.0 0.00 0.00 0.00 63 974.8